Content
SEND FEEDBACK

Daily
Averages
Monthly
Summary
United Kingdom

LONDON, ENGLAND


Home > Europe > United Kingdom > England
Elevation: 61 meters     Latitude: 51 09N     Longitude: 000 11W

WEATHER
 
SELECT A DAY
Number of Records: 297,238;   Date Range: 7/1/96 - 10/22/14
 
SHARE

PRINT THIS DATA

[ ← Previous Day ]
WEATHER ALMANAC - 22 FEBRUARY, 2013
[ Next Day → ]
[ °F ]   °C
Weather ElementAverageHighLow
Temperature0.1 °C1 °C (2:50 pm)-1 °C (9:50 am)
Dewpoint-4.8 °C-2 °C (12:20 pm)-7 °C (12:50 am)
Humidity70.4 %87 % (12:20 pm)60 % (12:50 am)
Barometer1019.3 hPa1020 hPa (12:50 am)1017.9 hPa (4:20 pm)
Wind Speed18.5 km/h27.8 km/h (4:20 pm)
Weather ElementAverage
Visibility9.5 km
Wind DirectionNE (44.5 °)

Weather ElementTotal
Precipitation---
Heating Degree Days18.3 (Base 18.3)
Averaged from 47 records on 22 February, 2013
WEATHER CONDITIONS BREAKOUT
WIND DIRECTION BREAKOUT
WEATHER BY HOUR - 22 FEBRUARY, 2013
[ °F ]   °C
Local TimeTemperatureDewpointHumidityBarometerVisibilityWind DirectionWind SpeedGust SpeedPrecipitationEventsConditions
12:50 AM0 °C-7 °C60 %1020 hPa10 kmENE (60°)20.4 km/hMostly Cloudy
1:20 AM0 °C-7 °C60 %1020 hPa10 kmENE (60°)18.5 km/hMostly Cloudy
1:50 AM0 °C-7 °C60 %1020 hPa10 kmNE (50°)16.7 km/hMostly Cloudy
2:20 AM0 °C-6 °C64 %1020 hPa10 kmNE (50°)16.7 km/hMostly Cloudy
2:50 AM0 °C-6 °C64 %1020 hPa10 kmENE (60°)14.8 km/hMostly Cloudy
3:20 AM0 °C-7 °C60 %1019 hPa10 kmENE (60°)11.1 km/hMostly Cloudy
3:50 AM0 °C-7 °C60 %1019 hPa10 kmNE (40°)9.3 km/hMostly Cloudy
4:20 AM0 °C-6 °C64 %1019 hPa10 kmENE (70°)7.4 km/hMostly Cloudy
4:50 AM0 °C-6 °C64 %1019 hPa10 kmNE (50°)14.8 km/hSnowLight Snow
5:20 AM0 °C-6 °C64 %1019 hPa10 kmENE (60°)14.8 km/hSnowLight Snow Grains
5:50 AM0 °C-6 °C64 %1019 hPa10 kmENE (60°)18.5 km/hSnowLight Snow Grains
6:20 AM0 °C-6 °C64 %1019 hPa10 kmNE (40°)14.8 km/hSnowLight Snow Grains
6:50 AM0 °C-6 °C64 %1019 hPa10 kmNE (40°)16.7 km/hMostly Cloudy
7:20 AM0 °C-6 °C64 %1020 hPa10 kmNE (40°)16.7 km/hMostly Cloudy
7:50 AM0 °C-6 °C64 %1020 hPa10 kmNE (40°)14.8 km/hMostly Cloudy
8:20 AM0 °C-6 °C64 %1020 hPa10 kmNE (50°)14.8 km/hOvercast
8:50 AM0 °C-5 °C69 %1020 hPa10 kmENE (60°)14.8 km/hSnowLight Snow
9:20 AM0 °C-5 °C69 %1020 hPa6 kmENE (70°)22.2 km/hSnowLight Snow
9:50 AM-1 °C-4 °C80 %1020 hPaENE (60°)16.7 km/hSnowLight Snow
10:20 AM0 °C-3 °C80 %1020 hPaNE (40°)13 km/hSnowLight Snow
10:50 AM0 °C-3 °C80 %1020 hPa4 kmENE (60°)18.5 km/hSnowLight Snow
11:20 AM0 °C-3 °C80 %1020 hPaENE (60°)20.4 km/hSnowLight Snow
11:50 AM0 °C-3 °C80 %1020 hPa2.7 kmENE (70°)14.8 km/hSnowLight Snow
12:20 PM0 °C-2 °C87 %1020 hPaENE (60°)14.8 km/hSnowLight Snow
12:50 PM0 °C-3 °C80 %1019 hPa8 kmENE (60°)22.2 km/hSnowLight Snow
1:20 PM0 °C-3 °C80 %1019 hPa10 kmENE (60°)16.7 km/hSnowLight Snow
1:50 PM0 °C-3 °C80 %1019 hPa10 kmENE (60°)18.5 km/hSnowLight Snow
2:20 PM0 °C-4 °C75 %1019 hPa9 kmNE (50°)24.1 km/hRain-SnowLight Rain
2:50 PM1 °C-4 °C70 %1019 hPa10 kmNE (50°)24.1 km/hSnowLight Snow
3:20 PM1 °C-4 °C70 %1019 hPa10 kmNE (40°)24.1 km/hSnowLight Snow
3:50 PM1 °C-4 °C70 %1019 hPa10 kmNE (40°)22.2 km/hMostly Cloudy
4:20 PM1 °C-5 °C65 %1017.9 hPa10 kmNE (40°)27.8 km/hMostly Cloudy
4:50 PM0 °C-5 °C69 %1017.9 hPa10 kmNE (40°)25.9 km/hMostly Cloudy
5:20 PM0 °C-5 °C69 %1019 hPa10 kmNNE (30°)20.4 km/hMostly Cloudy
5:50 PM0 °C-5 °C69 %1019 hPa10 kmNE (40°)18.5 km/hMostly Cloudy
6:20 PM0 °C-5 °C69 %1019 hPa10 kmNNE (30°)20.4 km/hMostly Cloudy
6:50 PM0 °C-5 °C69 %1019 hPa10 kmNNE (30°)16.7 km/hMostly Cloudy
7:20 PM0 °C-5 °C69 %1019 hPa10 kmNNE (20°)18.5 km/hSnowLight Snow Showers
7:50 PM0 °C-4 °C75 %1019 hPa10 kmNNE (20°)16.7 km/hSnowLight Snow Showers
8:20 PM0 °C-4 °C75 %1019 hPa10 kmNNE (20°)18.5 km/hSnowLight Snow Showers
8:50 PM0 °C-4 °C75 %1019 hPa10 kmNorth (10°)20.4 km/hSnowLight Snow Showers
9:20 PM0 °C-4 °C75 %1019 hPa10 kmNNE (20°)20.4 km/hSnowLight Snow Showers
9:50 PM0 °C-4 °C75 %1017.9 hPa10 kmNNE (30°)20.4 km/hSnowLight Snow Showers
10:20 PM0 °C-4 °C75 %1017.9 hPa10 kmNNE (20°)24.1 km/hSnowLight Snow Showers
10:50 PM0 °C-4 °C75 %1017.9 hPa10 kmNNE (30°)22.2 km/hSnowLight Snow Showers
11:20 PM0 °C-4 °C75 %1017.9 hPa10 kmNNE (20°)24.1 km/hSnowLight Snow
11:50 PM0 °C-4 °C75 %1017.9 hPa10 kmNNE (20°)22.2 km/hSnowLight Snow
Hourly data recorded from EGKK, located 0 kilometers away from London, England







STORIES FROM OUR PARTNERS